sat.trackr.live / text

‹ back to catalog

STARLINK-4493

NORAD 53533 · 2022-101G

PAYLOAD ACTIVE UNKNOWN

§ Identity

Operator
Country
US
Launch date
2022-08-19
Launch site
AFETR
Launch vehicle
Mass (kg)
RCS (m²)

Purposes: comms

External: N2YO · Heavens-Above · Gunter

§ Orbital elements

Epoch: 2026-05-25T02:33:22.033728Z

Period
95.44 min
Inclination
53.2150°
Eccentricity
0.0001285
Mean motion
15.08843881 rev/d
Perigee alt
538.8 km
Apogee alt
540.6 km
Semi-major
6,917.9 km
B*
3.1151e-5
RAAN
91.0600°
Arg perigee
73.1422°
Mean anomaly
286.9711°
Rev number
20,770

§ Raw data

STARLINK-44931 53533U 22101G   26145.10650502  .00000208  00000+0  31151-4 0  99962 53533  53.2150  91.0600 0001285  73.1422 286.9711 15.08843881207704

JSON: /api/v1/satellites/53533 · /tle

For live sub-satellite position, see the globe view (requires WebGL).

§ Visibility from observer

Set your observer location to see the next 7 days of passes ≥ 10°. The values pass through the URL so the page stays shareable.

No JS? Fill the form by hand. The geolocation button needs JavaScript.